Location: *
(48.7358°N, 0.3111°E)
Time: 02:12:24
(UTC+00:00)

Meteor 1-24 Rocket - Pass Details

Date: 22 October 2019
Orbit: 790 x 927 km, 81.3° (Epoch: 14 November)

Event Time Altitude Azimuth Distance (km) Brightness Sun altitude
Rises 05:10:41 0° 183° (S) 3,449 6.9 -13.6°
Reaches altitude 10° 05:13:05 10° 182° (S) 2,535 6.2 -13.2°
Maximum altitude 05:18:51 74° 98° (E) 943 4.1 -12.2°
Drops below altitude 10° 05:24:50 10° 15° (NNE) 2,625 6.4 -11.2°
Sets 05:27:21 0° 14° (NNE) 3,581 7.1 -10.8°
